Location: Ergnies
(50.0854°N, 2.0375°E)
Time: 08:46:03
(UTC+00:00)

Cosmos 44 - Pass Details

Date: 14 January 2026
Orbit: 570 x 780 km, 65.1° (Epoch: 17 February)

Event Time Altitude Azimuth Distance (km) Brightness Sun altitude
Exits shadow 05:06:39 30° 350° (N) 1,356 4.6 -24.7°
Maximum altitude 05:08:43 43° 40° (NE) 1,074 4.4 -24.4°
Drops below altitude 10° 05:13:51 10° 112° (ESE) 2,332 7.0 -23.6°
Sets 05:16:23 0° 119° (ESE) 3,257 7.9 -23.2°
